Regional Weather Roundup
Issued by NWS Jackson, KY

Current Version | Previous Version | Text Only | Print | Product List | Glossary On
Versions: 1 2 3 4 5 6 7 8 9 10 11 12 13 14 15 16 17 18 19 20 21 22 23 24 25 26 27 28 29 30 31 32 33 34 35 36 37 38 39 40 41 42 43 44 45 46 47 48 49 50
491
ASUS43 KJKL 280110
RWRJKL

EAST KENTUCKY HOURLY WEATHER ROUNDUP
NATIONAL WEATHER SERVICE JACKSON KY
900 PM EDT MON MAR 27 2017

NOTE: "FAIR" INDICATES FEW OR NO CLOUDS BELOW 12,000 FEET WITH
NO SIGNIFICANT WEATHER AND/OR OBSTRUCTIONS TO VISIBILITY.

* THESE REPORTS ARE NOT UNDER NWS QUALITY CONTROL AND MAY NOT
  REPORT WEATHER SUCH AS PRECIPITATION AND FOG.

KYZ079-080-083-085-087-088-110-112-115-119-120-280200
...EASTERN KENTUCKY...

CITY           SKY/WX    TMP DP  RH WIND       PRES   REMARKS
JACKSON        TSTM      60  57  89 VRB6      29.93R
LONDON         HVY RAIN  57  54  89 CALM      29.95S FOG
SOMERSET*      CLOUDY    54  54 100 CALM      29.96S
MONTICELLO*    CLOUDY    55  54  96 SE5       29.96S
WILLIAMSBURG*  CLOUDY    57  57 100 S5        29.95F
MIDDLESBORO*   TSTM      60  56  88 W13G30    29.97R
HARLAN APT*    CLOUDY    70  48  46 CALM      29.91S
PIKE CO APT*   MOCLDY    61  56  82 E3        29.90F
BIG SANDY APT* CLOUDY    60  57  91 CALM      29.90S
MOREHEAD APT*  LGT RAIN  59  54  82 SW15G37   29.94R
ASHLAND*       CLOUDY    54  54 100 W12G17    29.89
$$

KYZ035-036-041-042-044-050-067-078-099-280200
...CENTRAL KENTUCKY...

CITY           SKY/WX    TMP DP  RH WIND       PRES   REMARKS
MT STERLING*   RAIN      55  54  94 W8G18     29.95R
FLEMING/MASON* HVY RAIN  60  56  84 W20G28    29.90R
DANVILLE*      LGT RAIN  54  54 100 S6        29.90F
LEXINGTON      LGT RAIN  57  53  86 W7        29.90F
FRANKFORT      CLOUDY    57  53  86 E7        29.84F
LOUISVILLE     CLOUDY    59  55  87 SE8       29.83R
LEBANON*         N/A     55  55 100 SE12      29.87F
GLASGOW*       LGT RAIN N/A N/A N/A SE7       29.86F
BOWLING GREEN  LGT RAIN  58  56  93 SE7       29.85F
$$

KYZ091>093-OHZ055-061-077-WVZ005-015-034-035-042-280200
...SOUTHERN OHIO/WEST VIRGINIA...

CITY           SKY/WX    TMP DP  RH WIND       PRES   REMARKS
COVINGTON      LGT RAIN  60  56  86 S9G20     29.86R
COLUMBUS       CLOUDY    62  52  69 E5        29.86F
DAYTON         CLOUDY    59  51  75 E7        29.86F
WILMINGTON     CLOUDY    61  55  81 E5        29.85F
HUNTINGTON     TSTM      61  56  83 W8G24     29.92R
CHARLESTON     TSTM      61  57  87 S7        29.90R
PINEVILLE*     CLOUDY    60  50  70 MISG      29.98S
BECKLEY        MOCLDY    57  52  83 E5        29.95F
LOGAN CO APT*  MOCLDY    63  55  77 SE6       29.91F
$$

VAZ002-007-008-TNZ017-027-036-066-071-280200
...SOUTHWEST VIRGINIA/EAST TENNESSEE...

CITY           SKY/WX    TMP DP  RH WIND       PRES   REMARKS
WISE*          CLOUDY    64  46  52 S6        29.96F
JONESVILLE*    TSTM      66  59  77 CALM      29.94R
ABINGDON*      PTCLDY    64  50  59 CALM      29.95S
BRISTOL        CLOUDY    63  52  67 CALM      29.92S
MORRISTOWN*    MOCLDY    70  55  60 SW7       29.91R
SEVIERVILLE*   PTCLDY    72  48  43 SW5       29.90S
KNOXVILLE      TSTM      64  58  80 W22G30    29.97R
LAFOLLETTE*    MOCLDY    59  57  94 CALM      29.99S FOG
OAK RIDGE      HVY RAIN  60  57  89 W10G16    29.98R FOG
CROSSVILLE     CLOUDY    56  54  93 VRB6      29.92R
NASHVILLE      CLOUDY    60  58  92 S3        29.86F
$$

...KEY TO REMARKS...
VSB - VISIBILITY IN MILES
WCI - WIND CHILL INDEX
HX  - HEAT INDEX

$$




USA.gov is the U.S. government's official web portal to all federal, state and local government web resources and services.